Starlink 2033

operational
NORAD ID: 47650 Int'l Des: 2021-012 Owner: SPXS Country: US Constellation: starlink
LEOCIRCULARSTARLINK_TYPE

Starlink 2033について

説明を読み込み中...

リアルタイム位置

3D地球を読み込み中...

次回通過

高度履歴

Altitude vs Time

uPlot chart will show altitude changes over time

軌道要素

1 47650U 21012AG 25349.62820773 .00000248 00000-0 35514-4 0 9992
2 47650 53.0548 68.9852 0001155 66.1816 293.9294 15.06414573267589
Epoch: Dec 15, 2025 • Age: 20 hours

現在のステータス

高度 550.9 km
速度 7.59 km/s
衛星直下点 42.77°N, 44.66°W
打ち上げ日 Feb 16, 2021
運用期間 4.8 years
タイプ internet

技術仕様

分類 Payload
質量 260.00 kg
乾燥質量 248.00 kg
総質量 260.00 kg
長さ 0.20 m
直径 2.80 m
スパン 9.00 m
形状 Box + pan
製造者 SPXS
バスタイプ Starlink
フェーズステータス In Orbit
所有者/国 SPXS/US

大規模コンステレーション

Loading constellations...